TimeCST,TemperatureF,Dew PointF,Humidity,Sea Level PressureIn,VisibilityMPH,Wind Direction,Wind SpeedMPH,Gust SpeedMPH,PrecipitationIn,Events,Conditions,WindDirDegrees,DateUTC
12:00 AM,64.4,64.4,100,30.19,10.0,SE,5.8,-,N/A,,Light Drizzle,130,2013-01-29 06:00:00
12:05 AM,64.4,64.4,100,30.18,10.0,SE,6.9,-,N/A,,Light Drizzle,130,2013-01-29 06:05:00
12:55 AM,64.9,64.9,100,30.17,10.0,SE,6.9,-,0.00,,Light Drizzle,130,2013-01-29 06:55:00
1:55 AM,65.3,65.3,100,30.15,10.0,SSE,9.2,-,0.00,,Light Drizzle,150,2013-01-29 07:55:00
2:55 AM,65.5,65.5,100,30.14,10.0,SSE,8.1,-,0.00,,Light Drizzle,150,2013-01-29 08:55:00
3:06 AM,66.2,66.2,100,30.14,10.0,SE,9.2,-,N/A,,Light Drizzle,140,2013-01-29 09:06:00
3:32 AM,66.2,66.2,100,30.14,10.0,SE,8.1,-,N/A,,Mostly Cloudy,140,2013-01-29 09:32:00
3:43 AM,66.2,66.2,100,30.14,10.0,SE,8.1,-,N/A,,Light Drizzle,140,2013-01-29 09:43:00
3:55 AM,66.2,66.2,100,30.14,10.0,SE,8.1,-,0.00,,Light Drizzle,140,2013-01-29 09:55:00
4:11 AM,66.2,66.2,100,30.14,10.0,SE,8.1,-,N/A,,Light Drizzle,130,2013-01-29 10:11:00
4:13 AM,66.2,66.2,100,30.14,10.0,SE,8.1,-,N/A,,Light Drizzle,130,2013-01-29 10:13:00
4:55 AM,66.6,66.6,100,30.14,10.0,ESE,10.4,-,0.00,,Light Drizzle,120,2013-01-29 10:55:00
4:59 AM,66.2,66.2,100,30.14,10.0,ESE,11.5,-,N/A,,Light Drizzle,120,2013-01-29 10:59:00
5:09 AM,66.2,66.2,100,30.14,10.0,ESE,10.4,-,N/A,,Light Drizzle,120,2013-01-29 11:09:00
5:18 AM,66.2,66.2,100,30.14,10.0,SE,10.4,-,N/A,,Light Drizzle,130,2013-01-29 11:18:00
5:20 AM,66.2,66.2,100,30.14,10.0,ESE,11.5,-,N/A,,Light Drizzle,120,2013-01-29 11:20:00
5:36 AM,66.2,66.2,100,30.14,10.0,ESE,11.5,-,N/A,,Light Drizzle,120,2013-01-29 11:36:00
5:52 AM,66.2,66.2,100,30.15,10.0,ESE,9.2,-,N/A,,Overcast,120,2013-01-29 11:52:00
5:55 AM,66.6,66.6,100,30.15,10.0,ESE,10.4,-,0.00,,Overcast,120,2013-01-29 11:55:00
5:57 AM,66.2,66.2,100,30.15,10.0,ESE,10.4,-,N/A,,Light Drizzle,120,2013-01-29 11:57:00
5:58 AM,66.2,66.2,100,30.15,10.0,ESE,11.5,-,N/A,,Overcast,120,2013-01-29 11:58:00
5:59 AM,66.2,66.2,100,30.15,10.0,ESE,11.5,-,N/A,,Light Drizzle,120,2013-01-29 11:59:00
6:14 AM,66.2,66.2,100,30.14,10.0,SE,11.5,-,N/A,,Light Drizzle,130,2013-01-29 12:14:00
6:17 AM,66.2,66.2,100,30.14,10.0,SE,11.5,-,N/A,,Light Drizzle,130,2013-01-29 12:17:00
6:55 AM,66.0,66.0,100,30.14,10.0,ESE,11.5,-,0.00,,Light Drizzle,120,2013-01-29 12:55:00
7:44 AM,66.2,66.2,100,30.14,-9999.0,SE,10.4,-,N/A,,Light Drizzle,130,2013-01-29 13:44:00
7:55 AM,66.2,66.2,100,30.14,10.0,ESE,10.4,-,N/A,,Mostly Cloudy,120,2013-01-29 13:55:00
7:57 AM,66.2,66.2,100,30.14,10.0,SE,10.4,-,N/A,,Light Drizzle,130,2013-01-29 13:57:00
8:03 AM,66.2,66.2,100,30.14,10.0,SE,10.4,-,N/A,,Light Drizzle,130,2013-01-29 14:03:00
8:10 AM,66.2,66.2,100,30.15,10.0,SE,11.5,-,N/A,,Light Drizzle,130,2013-01-29 14:10:00
8:17 AM,66.2,66.2,100,30.15,10.0,SE,10.4,-,N/A,,Light Drizzle,140,2013-01-29 14:17:00
8:40 AM,66.2,66.2,100,30.15,7.0,SE,10.4,-,N/A,Rain,Light Rain,140,2013-01-29 14:40:00
8:42 AM,66.2,66.2,100,30.15,8.0,SE,10.4,-,N/A,Rain,Light Rain,140,2013-01-29 14:42:00
8:55 AM,66.6,66.6,100,30.15,7.0,SE,8.1,-,0.01,Rain,Light Rain,130,2013-01-29 14:55:00
9:02 AM,66.2,66.2,100,30.16,10.0,SE,10.4,-,N/A,Rain,Light Rain,140,2013-01-29 15:02:00
9:08 AM,66.2,66.2,100,30.16,10.0,SE,9.2,-,N/A,,Overcast,140,2013-01-29 15:08:00
9:12 AM,66.2,66.2,100,30.15,10.0,SE,8.1,-,N/A,,Light Drizzle,140,2013-01-29 15:12:00
9:13 AM,66.2,66.2,100,30.15,10.0,SE,9.2,-,N/A,,Light Drizzle,140,2013-01-29 15:13:00
9:21 AM,66.2,66.2,100,30.15,8.0,SE,9.2,-,N/A,Rain,Light Rain,140,2013-01-29 15:21:00
9:26 AM,68.0,68.0,100,30.15,7.0,SE,9.2,-,N/A,Rain,Light Rain,140,2013-01-29 15:26:00
9:27 AM,68.0,68.0,100,30.15,7.0,SE,10.4,-,N/A,Rain,Light Rain,140,2013-01-29 15:27:00
9:43 AM,68.0,68.0,100,30.15,10.0,SE,11.5,-,N/A,,Light Drizzle,140,2013-01-29 15:43:00
9:53 AM,68.0,68.0,100,30.15,10.0,SE,9.2,-,N/A,,Overcast,130,2013-01-29 15:53:00
9:55 AM,67.3,67.3,100,30.15,10.0,SE,9.2,-,0.02,,Overcast,140,2013-01-29 15:55:00
9:59 AM,68.0,68.0,100,30.15,10.0,SE,9.2,-,N/A,,Overcast,130,2013-01-29 15:59:00
10:09 AM,68.0,68.0,100,30.14,10.0,SE,12.7,-,N/A,,Overcast,140,2013-01-29 16:09:00
10:30 AM,68.0,68.0,100,30.14,10.0,SE,11.5,-,N/A,,Overcast,130,2013-01-29 16:30:00
10:38 AM,68.0,68.0,100,30.14,10.0,SE,10.4,-,N/A,,Light Drizzle,140,2013-01-29 16:38:00
10:55 AM,68.4,68.4,100,30.13,10.0,SE,12.7,-,0.00,,Light Drizzle,130,2013-01-29 16:55:00
10:58 AM,68.0,68.0,100,30.13,10.0,SE,10.4,-,N/A,,Light Drizzle,130,2013-01-29 16:58:00
11:31 AM,71.6,71.6,100,30.11,10.0,SE,10.4,-,N/A,,Light Drizzle,130,2013-01-29 17:31:00
11:46 AM,69.8,69.8,100,30.11,10.0,SE,13.8,-,N/A,,Light Drizzle,140,2013-01-29 17:46:00
11:51 AM,69.8,69.8,100,30.10,10.0,SE,11.5,19.6,N/A,,Mostly Cloudy,140,2013-01-29 17:51:00
11:53 AM,69.8,69.8,100,30.10,10.0,SE,13.8,19.6,N/A,,Mostly Cloudy,130,2013-01-29 17:53:00
11:55 AM,70.5,70.5,100,30.10,10.0,SE,12.7,19.6,0.00,,Mostly Cloudy,140,2013-01-29 17:55:00
12:01 PM,69.8,69.8,100,30.10,10.0,SE,13.8,19.6,N/A,,Light Drizzle,140,2013-01-29 18:01:00
12:05 PM,69.8,69.8,100,30.10,10.0,SE,12.7,-,N/A,,Mostly Cloudy,140,2013-01-29 18:05:00
12:06 PM,69.8,69.8,100,30.10,10.0,SE,12.7,-,N/A,,Light Drizzle,140,2013-01-29 18:06:00
12:11 PM,69.8,69.8,100,30.09,10.0,SE,12.7,19.6,N/A,,Overcast,140,2013-01-29 18:11:00
12:13 PM,69.8,69.8,100,30.09,10.0,SE,13.8,19.6,N/A,,Light Drizzle,140,2013-01-29 18:13:00
12:27 PM,71.6,71.6,100,30.08,10.0,SE,13.8,21.9,N/A,,Light Drizzle,130,2013-01-29 18:27:00
12:31 PM,71.6,71.6,100,30.07,10.0,SE,11.5,21.9,N/A,,Light Drizzle,140,2013-01-29 18:31:00
12:42 PM,71.6,71.6,100,30.06,-9999.0,SE,16.1,-,N/A,,Light Drizzle,140,2013-01-29 18:42:00
12:55 PM,72.0,72.0,100,30.07,10.0,SE,10.4,-,0.00,,Light Drizzle,140,2013-01-29 18:55:00
1:04 PM,71.6,71.6,100,30.06,10.0,SE,15.0,19.6,N/A,,Overcast,140,2013-01-29 19:04:00
1:32 PM,71.6,71.6,100,30.04,10.0,SE,13.8,-,N/A,,Light Drizzle,140,2013-01-29 19:32:00
1:55 PM,71.2,71.2,100,30.04,10.0,SE,11.5,-,0.00,,Light Drizzle,140,2013-01-29 19:55:00
1:59 PM,71.6,71.6,100,30.03,10.0,SE,13.8,-,N/A,,Overcast,130,2013-01-29 19:59:00
2:23 PM,71.6,71.6,100,30.03,10.0,SE,12.7,-,N/A,,Light Drizzle,140,2013-01-29 20:23:00
2:43 PM,69.8,69.8,100,30.02,10.0,SE,11.5,18.4,N/A,,Overcast,130,2013-01-29 20:43:00
2:55 PM,70.2,70.2,100,30.02,10.0,SE,13.8,-,0.00,,Light Drizzle,130,2013-01-29 20:55:00
3:55 PM,69.1,69.1,100,30.01,10.0,SE,10.4,-,0.00,,Light Drizzle,130,2013-01-29 21:55:00
4:03 PM,69.8,69.8,100,30.02,10.0,SE,9.2,-,N/A,,Overcast,130,2013-01-29 22:03:00
4:22 PM,69.8,69.8,100,30.01,10.0,SE,10.4,-,N/A,,Light Drizzle,130,2013-01-29 22:22:00
4:55 PM,68.5,68.5,100,30.01,10.0,SE,11.5,-,0.00,,Light Drizzle,130,2013-01-29 22:55:00
5:55 PM,68.2,68.2,100,30.00,10.0,SE,11.5,-,0.00,,Light Drizzle,140,2013-01-29 23:55:00
6:01 PM,68.0,68.0,100,30.00,10.0,SE,10.4,-,N/A,,Light Drizzle,130,2013-01-30 00:01:00
6:35 PM,68.0,68.0,100,30.00,10.0,SE,10.4,-,N/A,,Light Drizzle,130,2013-01-30 00:35:00
6:55 PM,68.0,68.0,100,29.99,10.0,SE,11.5,-,0.00,,Light Drizzle,130,2013-01-30 00:55:00
7:05 PM,68.0,68.0,100,29.99,9.0,SE,10.4,-,N/A,,Light Drizzle,130,2013-01-30 01:05:00
7:08 PM,68.0,68.0,100,29.99,9.0,SE,10.4,-,N/A,,Light Drizzle,130,2013-01-30 01:08:00
7:28 PM,68.0,68.0,100,29.99,9.0,SE,9.2,-,N/A,,Light Drizzle,130,2013-01-30 01:28:00
7:55 PM,68.0,68.0,100,29.99,9.0,SE,10.4,-,0.00,,Light Drizzle,130,2013-01-30 01:55:00
8:55 PM,68.4,68.4,100,29.98,8.0,SSE,10.4,-,0.00,,Light Drizzle,150,2013-01-30 02:55:00
9:55 PM,68.4,68.4,100,29.98,8.0,SSE,11.5,-,0.00,,Light Drizzle,150,2013-01-30 03:55:00
10:20 PM,68.0,68.0,100,29.98,9.0,SSE,13.8,20.7,N/A,,Light Drizzle,160,2013-01-30 04:20:00
10:55 PM,69.1,69.1,100,29.96,8.0,SSE,16.1,-,0.00,Rain,Light Rain,160,2013-01-30 04:55:00
10:57 PM,69.8,69.8,100,29.96,8.0,SSE,15.0,-,N/A,,Overcast,160,2013-01-30 04:57:00
11:03 PM,69.8,69.8,100,29.96,8.0,South,13.8,-,N/A,,Overcast,170,2013-01-30 05:03:00
11:20 PM,69.8,69.8,100,29.95,8.0,SSE,15.0,-,N/A,,Light Drizzle,160,2013-01-30 05:20:00
11:55 PM,69.1,69.1,100,29.94,8.0,SSE,16.1,-,0.00,,Light Drizzle,160,2013-01-30 05:55:00